KI5IZM-13 Weather Reports


Display with metric or nautical units.
time (UTC)temp
F
wind
direction
speed
MPH
gust
MPH
rain 1hr
in
rain 24hr
in
rain mn
in
humidity
%
barometer
mb
20260506044526 77 94 0.0 8.0 0.00 0.00 0.00 83 1008.8
20260506043010 77 293 1.0 7.0 0.00 0.00 0.00 83 1008.8
20260506041526 76 128 1.0 4.0 0.00 0.00 0.00 84 1008.4
20260506040020 77 156 0.0 5.0 0.00 0.00 0.00 84 1008.2
20260506034526 77 182 1.0 5.0 0.00 0.00 0.00 84 1008.0
20260506033030 77 134 1.0 5.0 0.00 0.00 0.00 83 1007.7
20260506031522 77 142 0.0 3.0 0.00 0.00 0.00 83 1007.9
20260506030023 77 162 1.0 4.0 0.00 0.00 0.00 82 1007.8
20260506024522 78 142 0.0 6.0 0.00 0.00 0.00 82 1007.5
20260506023025 78 140 0.0 3.0 0.00 0.00 0.00 81 1007.4
20260506021529 79 155 0.0 4.0 0.00 0.00 0.00 80 1007.6
20260506020022 79 173 0.0 2.0 0.00 0.00 0.00 80 1007.3
20260506014529 80 115 0.0 2.0 0.00 0.00 0.00 79 1007.2
20260506013003 80 260 1.0 4.0 0.00 0.00 0.00 78 1007.1
20260506011510 80 113 0.0 4.0 0.00 0.00 0.00 78 1006.8
20260506010023 81 126 0.0 1.0 0.00 0.00 0.00 77 1006.7
20260506004534 81 150 0.0 4.0 0.00 0.00 0.00 77 1006.3
20260506003024 82 121 0.0 5.0 0.00 0.00 0.00 75 1006.2
20260506001509 82 102 0.0 7.0 0.00 0.00 0.00 74 1006.1
20260506000016 83 177 2.0 6.0 0.00 0.00 0.00 73 1006.2
20260505234519 83 277 0.0 10.0 0.00 0.00 0.00 72 1006.2
20260505233022 84 125 2.0 10.0 0.00 0.00 0.00 71 1006.1
20260505231527 84 214 0.0 6.0 0.00 0.00 0.00 71 1006.0
20260505230012 84 273 3.0 12.0 0.00 0.00 0.00 70 1005.7
20260505224512 84 304 1.0 11.0 0.00 0.00 0.00 70 1005.8
20260505223018 84 298 2.0 8.0 0.00 0.00 0.00 69 1005.7
20260505221527 84 251 1.0 12.0 0.00 0.00 0.00 70 1005.7
20260505220036 85 201 3.0 11.0 0.00 0.00 0.00 69 1006.0
20260505214518 84 300 6.0 13.0 0.00 0.00 0.00 68 1006.3
20260505213018 84 292 3.0 18.0 0.00 0.00 0.00 70 1006.5
20260505211518 85 308 5.0 12.0 0.00 0.00 0.00 69 1006.4
20260505210029 83 223 4.0 14.0 0.00 0.00 0.00 70 1006.5
20260505204531 83 294 1.0 13.0 0.00 0.00 0.00 72 1006.7
20260505203015 83 141 1.0 15.0 0.00 0.00 0.00 73 1006.7
20260505201518 82 277 3.0 13.0 0.00 0.00 0.00 73 1007.2
20260505200027 82 103 1.0 11.0 0.00 0.00 0.00 74 1007.2
20260505194526 81 248 5.0 14.0 0.00 0.00 0.00 73 1007.3
20260505193040 81 219 3.0 12.0 0.00 0.00 0.00 74 1007.4
20260505191514 80 269 6.0 20.0 0.00 0.00 0.00 74 1007.3
20260505190029 80 236 5.0 14.0 0.00 0.00 0.00 75 1007.5
20260505184526 79 249 3.0 13.0 0.00 0.00 0.00 77 1007.7
20260505183039 79 276 5.0 18.0 0.00 0.00 0.00 76 1007.9
20260505181525 79 87 3.0 13.0 0.00 0.00 0.00 77 1007.8
20260505180035 79 113 4.0 16.0 0.00 0.00 0.00 76 1008.0
20260505174530 78 284 3.0 11.0 0.00 0.00 0.00 77 1008.0
20260505173034 78 184 4.0 13.0 0.00 0.00 0.00 78 1008.0
20260505171533 77 246 4.0 16.0 0.00 0.00 0.00 79 1008.1
20260505170026 76 263 3.0 17.0 0.00 0.00 0.00 80 1008.4
20260505164535 76 240 4.0 13.0 0.00 0.00 0.00 80 1008.3
20260505163024 76 228 2.0 12.0 0.00 0.00 0.00 81 1008.5
20260505161506 74 242 6.0 17.0 0.00 0.00 0.00 83 1008.4
20260505153027 73 146 1.0 15.0 0.00 0.00 0.00 83 1008.4
20260505151523 73 141 4.0 15.0 0.00 0.00 0.00 83 1008.4
20260505124513 70 257 1.0 15.0 0.00 0.00 0.00 87 1008.2
20260505123011 70 234 2.0 10.0 0.00 0.00 0.00 86 1008.1
20260505121521 70 181 2.0 11.0 0.00 0.00 0.00 86 1008.0
20260505120033 70 123 1.0 10.0 0.00 0.00 0.00 87 1007.7
20260505114507 70 266 4.0 13.0 0.00 0.00 0.00 86 1007.3
20260505113011 70 194 5.0 11.0 0.00 0.00 0.00 86 1007.3
20260505111519 70 259 3.0 16.0 0.00 0.00 0.00 86 1007.6
20260505101511 69 79 3.0 10.0 0.00 0.00 0.00 86 1007.3
20260505100018 68 218 3.0 13.0 0.00 0.00 0.00 86 1007.5
20260505094529 68 108 3.0 17.0 0.00 0.00 0.00 86 1007.4
20260505093004 68 298 0.0 11.0 0.00 0.00 0.00 86 1007.4
20260505091510 68 142 7.0 13.0 0.00 0.00 0.00 86 1007.4
20260505090026 68 139 2.0 8.0 0.00 0.00 0.00 87 1007.6
20260505084523 68 179 1.0 10.0 0.00 0.00 0.00 87 1008.0
20260505083026 67 186 2.0 12.0 0.00 0.00 0.00 87 1008.0
20260505081506 67 70 2.0 8.0 0.00 0.00 0.00 87 1008.1
20260505080010 67 146 3.0 8.0 0.00 0.00 0.00 86 1008.2
20260505074516 67 269 0.0 9.0 0.00 0.00 0.00 86 1008.4
20260505073021 67 107 2.0 11.0 0.00 0.00 0.00 86 1008.6
20260505071529 68 113 1.0 6.0 0.00 0.00 0.00 85 1008.6
20260505070028 68 166 1.0 11.0 0.00 0.00 0.00 85 1008.8
20260505064512 68 121 1.0 9.0 0.00 0.00 0.00 84 1008.7
20260505063020 68 179 1.0 7.0 0.00 0.00 0.00 83 1009.0
20260505061521 68 263 1.0 13.0 0.00 0.00 0.00 83 1009.2
20260505060027 69 121 1.0 8.0 0.00 0.00 0.00 82 1009.2
20260505054526 69 134 3.0 10.0 0.00 0.00 0.00 81 1009.0
20260505053018 69 132 1.0 13.0 0.00 0.00 0.00 81 1009.5
20260505051524 70 130 2.0 8.0 0.00 0.00 0.00 80 1009.3